Duluth, MN

2:12 PM CDT on August 29, 2016 (GMT -0500)
Duluth International

Weather History for KDLH - April, 2013

Change the Weather History Date:

Wednesday, April 24, 2013

  Actual Average Record
Temperature  
Mean Temperature 32 °F 44 °F  
Max Temperature 42 °F 54 °F 82 °F (1990)
Min Temperature 21 °F 34 °F 19 °F (1956)
Degree Days  
Heating Degree Days 33 21  
Month to date heating degree days 815 643  
Since 1 July heating degree days 8656 8720  
Cooling Degree Days 0 0  
Month to date cooling degree days 0 0  
Year to date cooling degree days 0 0  
Moisture  
Dew Point 24 °F    
Average Humidity 63    
Maximum Humidity 85    
Minimum Humidity 41    
Precipitation  
Precipitation 0.02 in 0.09 in 1.99 in (1889)
Month to date precipitation 4.63 1.84  
Year to date precipitation 9.22 5.10  
Snow  
Snow T in 0.20 in 4.30 in (2014)
Month to date snowfall 50.8 6.2  
Since 1 July snowfall 129.4 85.0  
Snow Depth 21.00 in    
Sea Level Pressure  
Sea Level Pressure 29.92 in    
Wind  
Wind Speed 6 mph (WSW)    
Max Wind Speed 18 mph    
Max Gust Speed 22 mph    
Visibility 8 miles    
Events Snow    
T = Trace of Precipitation, MM = Missing Value Source: NWS Daily Summary

Daily Weather History Graph

Daily Weather History Graph

Search for Another Location

Airport or City:

Trip Planner

Search our weather history database for the weather conditions in past years. The results will help you decide how hot, cold, wet, or windy it might be!

Date:

Astronomy

Apr. 24, 2013 Rise Set
Actual Time 6:04 AM CDT 8:09 PM CDT
Civil Twilight 5:31 AM CDT 8:42 PM CDT
Nautical Twilight 4:51 AM CDT 9:23 PM CDT
Astronomical Twilight 4:06 AM CDT 10:09 PM CDT
Moon 7:11 PM CDT (4/24) 5:13 AM CDT (4/24)
Length of Visible Light 15h 10m
Length of Day
14h 05m
Waxing Gibbous, 98% of the Moon is Illuminated
Apr 24
Waxing Gibbous
Apr 25
Full
May 2
Last Quarter
May 9
New
May 17
First Quarter

Hourly Weather History & Observations

Time (CDT) Temp. Windchill Dew Point Humidity Pressure Visibility Wind Dir Wind Speed Gust Speed Precip Events Conditions
12:55 AM 30.9 °F 24.3 °F 14.0 °F 50% 30.03 in 10.0 mi NW 6.9 mph - N/A   Clear
1:55 AM 28.9 °F 22.8 °F 15.1 °F 56% 30.02 in 10.0 mi WNW 5.8 mph - N/A   Clear
2:55 AM 28.0 °F 20.8 °F 15.1 °F 58% 30.01 in 10.0 mi West 6.9 mph - N/A   Clear
3:55 AM 27.0 °F 19.5 °F 15.1 °F 61% 30.01 in 10.0 mi WNW 6.9 mph - N/A   Clear
4:55 AM 25.0 °F 18.1 °F 14.0 °F 63% 30.01 in 10.0 mi West 5.8 mph - N/A   Clear
5:55 AM 24.1 °F - 14.0 °F 65% 29.99 in 10.0 mi Calm Calm - N/A   Partly Cloudy
6:55 AM 24.1 °F 18.2 °F 15.1 °F 69% 29.99 in 10.0 mi West 4.6 mph - N/A   Mostly Cloudy
7:55 AM 28.0 °F - 17.1 °F 63% 29.99 in 10.0 mi Calm Calm - N/A   Mostly Cloudy
8:55 AM 32.0 °F 27.5 °F 19.0 °F 59% 29.98 in 10.0 mi SW 4.6 mph - N/A   Mostly Cloudy
9:55 AM 35.1 °F 30.1 °F 19.0 °F 52% 29.96 in 10.0 mi SW 5.8 mph - N/A   Overcast
10:55 AM 37.0 °F 31.6 °F 19.9 °F 50% 29.94 in 10.0 mi SSW 6.9 mph - N/A   Clear
11:55 AM 39.0 °F 32.8 °F 21.9 °F 50% 29.93 in 10.0 mi SW 9.2 mph - N/A   Clear
12:55 PM 41.0 °F 36.4 °F 19.9 °F 43% 29.91 in 10.0 mi SSW 6.9 mph - N/A   Mostly Cloudy
1:55 PM 41.0 °F 33.5 °F 21.0 °F 45% 29.90 in 10.0 mi South 13.8 mph - N/A   Mostly Cloudy
2:55 PM 37.9 °F 31.5 °F 27.0 °F 65% 29.91 in 9.0 mi SSW 9.2 mph - 0.00 in Snow Light Snow
3:00 PM 37.4 °F 30.8 °F 28.4 °F 70% 29.86 in 2.5 mi South 9.2 mph - 0.00 in Snow Light Snow
3:21 PM 35.6 °F 30.7 °F 30.2 °F 81% 29.85 in 1.5 mi South 5.8 mph - 0.00 in Snow Light Snow
3:33 PM 35.6 °F 31.7 °F 30.2 °F 81% 29.85 in 0.8 mi South 4.6 mph - 0.00 in Snow Light Snow
3:47 PM 35.6 °F 31.7 °F 30.2 °F 81% 29.85 in 0.8 mi SSW 4.6 mph - 0.01 in Snow Light Snow
3:55 PM 35.1 °F 31.0 °F 30.9 °F 85% 29.91 in 0.8 mi SSW 4.6 mph - 0.01 in Snow Light Snow
4:09 PM 35.6 °F 32.8 °F 32.0 °F 87% 29.84 in 0.8 mi SSW 3.5 mph - 0.01 in Snow Light Snow
4:24 PM 35.6 °F 32.8 °F 32.0 °F 87% 29.84 in 1.5 mi SSW 3.5 mph - 0.01 in Snow Light Snow
4:38 PM 35.6 °F 31.7 °F 32.0 °F 87% 29.84 in 1.5 mi SW 4.6 mph - 0.01 in Snow Light Snow
4:43 PM 35.6 °F 29.2 °F 32.0 °F 87% 29.84 in 3.0 mi WSW 8.1 mph - 0.01 in Snow Light Snow
4:55 PM 36.0 °F 29.0 °F 30.9 °F 82% 29.91 in 3.0 mi West 9.2 mph - 0.01 in Snow Light Snow
5:24 PM 37.4 °F 29.8 °F 30.2 °F 75% 29.84 in 10.0 mi West 11.5 mph - 0.00 in   Overcast
5:34 PM 37.4 °F 28.9 °F 30.2 °F 75% 29.84 in 10.0 mi West 13.8 mph - 0.00 in   Overcast
5:55 PM 37.0 °F 30.4 °F 30.0 °F 76% 29.90 in 10.0 mi West 9.2 mph - 0.00 in   Overcast
6:44 PM 37.4 °F 29.8 °F 28.4 °F 70% 29.85 in 10.0 mi WNW 11.5 mph - N/A   Scattered Clouds
6:55 PM 37.0 °F 29.3 °F 28.0 °F 70% 29.91 in 10.0 mi WNW 11.5 mph - N/A   Mostly Cloudy
7:03 PM 37.4 °F 30.3 °F 28.4 °F 70% 29.85 in 10.0 mi West 10.4 mph - N/A   Mostly Cloudy
7:55 PM 37.0 °F 31.6 °F 28.0 °F 70% 29.91 in 10.0 mi WNW 6.9 mph - N/A   Mostly Cloudy
8:55 PM 35.1 °F 32.2 °F 27.0 °F 72% 29.92 in 10.0 mi NNW 3.5 mph - N/A   Partly Cloudy
9:55 PM 32.0 °F - 26.1 °F 79% 29.94 in 10.0 mi Calm Calm - N/A   Clear
10:55 PM 28.9 °F - 24.1 °F 82% 29.96 in 10.0 mi Calm Calm - N/A   Clear
11:55 PM 28.0 °F 21.7 °F 24.1 °F 85% 29.96 in 10.0 mi WSW 5.8 mph - N/A   Clear